Weather History for Chariton, IA

Change the Weather History Date:

Friday, October 26, 2012

  Actual Average Record
Temperature  
Mean Temperature 39 °F -  
Max Temperature 46 °F 62 °F 84 °F (1955)
Min Temperature 32 °F 36 °F 20 °F (1949)
Degree Days  
Heating Degree Days 26    
Moisture  
Dew Point 28 °F    
Average Humidity 64    
Maximum Humidity 81    
Minimum Humidity 46    
Precipitation  
Precipitation 0.00 in - - ()
Sea Level Pressure  
Sea Level Pressure 30.40 in    
Wind  
Wind Speed 10 mph (NNW)    
Max Wind Speed 18 mph    
Max Gust Speed 28 mph    
Visibility 10 miles    
Events      
Averages and records for this station are not official NWS values.
T = Trace of Precipitation, MM = Missing Value Source: NWS Daily Summary

Daily Weather History Graph

Daily Weather History Graph

Search for Another Location

Airport:

Trip Planner

Search our weather history database for the weather conditions in past years. The results will help you decide how hot, cold, wet, or windy it might be!

Date:

Astronomy

Oct. 26, 2012 Rise Set
Actual Time 7:37 AM CDT 6:16 PM CDT
Civil Twilight 7:09 AM CDT 6:44 PM CDT
Nautical Twilight 6:37 AM CDT 7:16 PM CDT
Astronomical Twilight 6:05 AM CDT 7:48 PM CDT
Moon 4:33 PM CDT (10/26) 4:33 AM CDT (10/26)
Length of Visible Light 11h 34m
Length of Day
10h 38m
Waxing Gibbous, 91% of the Moon is Illuminated
Oct 26
Waxing Gibbous
Oct 29
Full
Nov 6
Last Quarter
Nov 13
New
Nov 20
First Quarter

Hourly Weather History & Observations

Time (CDT) Temp. Windchill Dew Point Humidity Pressure Visibility Wind Dir Wind Speed Gust Speed Precip Events Conditions
12:15 AM 39.2 °F 29.8 °F 28.4 °F 65% 30.29 in 10.0 mi NNW 18.4 mph 27.6 mph N/A   Overcast
12:35 AM 39.2 °F 31.6 °F 28.4 °F 65% 30.30 in 10.0 mi NNW 12.7 mph 16.1 mph N/A   Overcast
1:15 AM 39.2 °F 31.6 °F 28.4 °F 65% 30.31 in 10.0 mi NNW 12.7 mph 21.9 mph N/A   Overcast
1:35 AM 39.2 °F 30.8 °F 26.6 °F 61% 30.31 in 10.0 mi NNW 15.0 mph 20.7 mph N/A   Overcast
1:55 AM 39.2 °F 32.0 °F 28.4 °F 65% 30.31 in 10.0 mi NNW 11.5 mph - N/A   Overcast
2:15 AM 39.2 °F 34.2 °F 28.4 °F 65% 30.31 in 10.0 mi North 6.9 mph - N/A   Overcast
2:35 AM 39.2 °F 33.0 °F 28.4 °F 65% 30.32 in 10.0 mi NNW 9.2 mph - N/A   Overcast
2:55 AM 37.4 °F 31.4 °F 26.6 °F 65% 30.32 in 10.0 mi NNW 8.1 mph - N/A   Mostly Cloudy
3:15 AM 35.6 °F 29.9 °F 26.6 °F 70% 30.32 in 10.0 mi NNW 6.9 mph - N/A   Clear
3:35 AM 35.6 °F 31.7 °F 26.6 °F 70% 30.33 in 10.0 mi NW 4.6 mph - N/A   Clear
3:55 AM 35.6 °F 30.7 °F 26.6 °F 70% 30.34 in 10.0 mi NW 5.8 mph - N/A   Clear
4:15 AM 35.6 °F 30.7 °F 26.6 °F 70% 30.36 in 10.0 mi WNW 5.8 mph - N/A   Clear
4:35 AM 33.8 °F 28.6 °F 26.6 °F 75% 30.35 in 10.0 mi WNW 5.8 mph - N/A   Clear
4:55 AM 33.8 °F 27.7 °F 26.6 °F 75% 30.35 in 10.0 mi WNW 6.9 mph - N/A   Clear
5:15 AM 33.8 °F 27.7 °F 26.6 °F 75% 30.36 in 10.0 mi WNW 6.9 mph - N/A   Clear
5:35 AM 33.8 °F 28.6 °F 26.6 °F 75% 30.37 in 10.0 mi WNW 5.8 mph - N/A   Clear
5:55 AM 33.8 °F 28.6 °F 26.6 °F 75% 30.38 in 10.0 mi WNW 5.8 mph - N/A   Clear
6:15 AM 32.0 °F 25.6 °F 26.6 °F 80% 30.39 in 10.0 mi WNW 6.9 mph - N/A   Clear
6:35 AM 32.0 °F 25.6 °F 26.6 °F 80% 30.39 in 10.0 mi West 6.9 mph - N/A   Clear
6:55 AM 32.0 °F 26.4 °F 26.6 °F 80% 30.40 in 10.0 mi WNW 5.8 mph - N/A   Scattered Clouds
7:15 AM 33.8 °F 27.7 °F 26.6 °F 75% 30.40 in 10.0 mi WNW 6.9 mph - N/A   Mostly Cloudy
7:55 AM 33.8 °F 28.6 °F 28.4 °F 81% 30.41 in 10.0 mi NW 5.8 mph - N/A   Mostly Cloudy
8:35 AM 35.6 °F 29.2 °F 30.2 °F 81% 30.42 in 10.0 mi NW 8.1 mph - N/A   Mostly Cloudy
8:55 AM 37.4 °F 30.8 °F 30.2 °F 75% 30.42 in 10.0 mi NW 9.2 mph - N/A   Scattered Clouds
9:15 AM 39.2 °F 33.0 °F 30.2 °F 70% 30.43 in 10.0 mi NNW 9.2 mph - N/A   Clear
9:35 AM 39.2 °F 31.6 °F 30.2 °F 70% 30.43 in 10.0 mi NNW 12.7 mph 17.3 mph N/A   Clear
10:15 AM 42.8 °F 35.4 °F 28.4 °F 57% 30.44 in 10.0 mi North 15.0 mph - N/A   Clear
10:35 AM 42.8 °F 34.8 °F 28.4 °F 57% 30.44 in 10.0 mi North 17.3 mph 24.2 mph N/A   Scattered Clouds
10:55 AM 44.6 °F 37.4 °F 30.2 °F 57% 30.44 in 10.0 mi North 16.1 mph 20.7 mph N/A   Mostly Cloudy
11:15 AM 42.8 °F 35.4 °F 28.4 °F 57% 30.44 in 10.0 mi North 15.0 mph 19.6 mph N/A   Mostly Cloudy
11:35 AM 44.6 °F 37.4 °F 28.4 °F 53% 30.44 in 10.0 mi NNW 16.1 mph - N/A   Scattered Clouds
11:55 AM 42.8 °F 35.4 °F 28.4 °F 57% 30.45 in 10.0 mi NNW 15.0 mph 19.6 mph N/A   Mostly Cloudy
12:15 PM 44.6 °F 39.7 °F 26.6 °F 49% 30.45 in 10.0 mi North 9.2 mph 17.3 mph N/A   Scattered Clouds
12:35 PM 44.6 °F 39.7 °F 28.4 °F 53% 30.45 in 10.0 mi North 9.2 mph - N/A   Scattered Clouds
12:55 PM 44.6 °F 39.7 °F 28.4 °F 53% 30.45 in 10.0 mi North 9.2 mph 16.1 mph N/A   Scattered Clouds
1:15 PM 44.6 °F 39.2 °F 26.6 °F 49% 30.44 in 10.0 mi NNW 10.4 mph - N/A   Scattered Clouds
1:35 PM 46.4 °F 42.9 °F 28.4 °F 50% 30.43 in 10.0 mi NW 6.9 mph - N/A   Mostly Cloudy
1:55 PM 46.4 °F 44.3 °F 26.6 °F 46% 30.43 in 10.0 mi NW 4.6 mph - N/A   Mostly Cloudy
2:15 PM 46.4 °F 42.4 °F 28.4 °F 50% 30.43 in 10.0 mi NNW 8.1 mph - N/A   Mostly Cloudy
2:35 PM 44.6 °F 39.7 °F 28.4 °F 53% 30.42 in 10.0 mi WNW 9.2 mph - N/A   Mostly Cloudy
2:55 PM 46.4 °F 41.5 °F 28.4 °F 50% 30.42 in 10.0 mi NNW 10.4 mph - N/A   Mostly Cloudy
3:15 PM 44.6 °F 39.2 °F 28.4 °F 53% 30.41 in 10.0 mi NW 10.4 mph - N/A   Scattered Clouds
3:35 PM 46.4 °F 41.9 °F 28.4 °F 50% 30.41 in 10.0 mi NW 9.2 mph - N/A   Scattered Clouds
3:55 PM 46.4 °F 41.5 °F 28.4 °F 50% 30.41 in 10.0 mi WNW 10.4 mph 17.3 mph N/A   Scattered Clouds
4:15 PM 46.4 °F 41.5 °F 28.4 °F 50% 30.40 in 10.0 mi NNW 10.4 mph - N/A   Clear
4:35 PM 46.4 °F 41.5 °F 28.4 °F 50% 30.39 in 10.0 mi NW 10.4 mph - N/A   Clear
4:55 PM 44.6 °F 38.4 °F 28.4 °F 53% 30.40 in 10.0 mi NNW 12.7 mph - N/A   Scattered Clouds
5:15 PM 44.6 °F 37.8 °F 28.4 °F 53% 30.40 in 10.0 mi NNW 15.0 mph - N/A   Clear
5:35 PM 44.6 °F 39.7 °F 28.4 °F 53% 30.40 in 10.0 mi NNW 9.2 mph - N/A   Scattered Clouds
5:55 PM 42.8 °F 37.0 °F 28.4 °F 57% 30.40 in 10.0 mi NW 10.4 mph - N/A   Scattered Clouds
6:15 PM 41.0 °F 34.3 °F 28.4 °F 61% 30.40 in 10.0 mi NNW 11.5 mph - N/A   Clear
6:35 PM 39.2 °F 33.0 °F 28.4 °F 65% 30.41 in 10.0 mi NNW 9.2 mph - N/A   Clear
6:55 PM 39.2 °F 33.6 °F 28.4 °F 65% 30.41 in 10.0 mi NNW 8.1 mph - N/A   Clear
7:15 PM 37.4 °F 31.4 °F 28.4 °F 70% 30.41 in 10.0 mi NNW 8.1 mph - N/A   Clear
7:35 PM 37.4 °F 32.8 °F 28.4 °F 70% 30.41 in 10.0 mi NNW 5.8 mph - N/A   Clear
8:15 PM 35.6 °F 29.9 °F 28.4 °F 75% 30.41 in 10.0 mi NNW 6.9 mph - N/A   Clear
8:35 PM 35.6 °F 30.7 °F 26.6 °F 70% 30.42 in 10.0 mi NNW 5.8 mph - N/A   Scattered Clouds
9:15 PM 37.4 °F 32.8 °F 28.4 °F 70% 30.42 in 10.0 mi North 5.8 mph - N/A   Overcast
9:35 PM 37.4 °F 32.8 °F 28.4 °F 70% 30.43 in 10.0 mi NNW 5.8 mph - N/A   Mostly Cloudy
9:55 PM 35.6 °F 30.7 °F 28.4 °F 75% 30.42 in 10.0 mi NNW 5.8 mph - N/A   Mostly Cloudy
10:15 PM 37.4 °F 30.8 °F 28.4 °F 70% 30.43 in 10.0 mi NNW 9.2 mph - N/A   Mostly Cloudy
10:35 PM 37.4 °F 31.4 °F 26.6 °F 65% 30.42 in 10.0 mi North 8.1 mph - N/A   Scattered Clouds
10:55 PM 35.6 °F 30.7 °F 26.6 °F 70% 30.42 in 10.0 mi NNW 5.8 mph - N/A   Scattered Clouds
11:15 PM 33.8 °F 30.8 °F 26.6 °F 75% 30.42 in 10.0 mi NNW 3.5 mph - N/A   Clear
11:35 PM 33.8 °F 30.8 °F 26.6 °F 75% 30.42 in 10.0 mi NNW 3.5 mph - N/A   Clear
11:55 PM 33.8 °F - 26.6 °F 75% 30.41 in 10.0 mi Calm Calm - N/A   Clear